STARLINK-34854, 65337

Orbit data source: Space-Track

STARLINK-34854, 65337 is a payload satellite owned by SpaceX/Seattle (US) in LEO that was launched on Wed, 27 Aug 2025 UTC via an FALCON 9 launch vehicle from the Air Force Eastern Test Range (AFETR). Payload-class satellites include a variety of spacecraft equipped with specific instruments for various scientific and technological missions. These include communications satellites like Starlink; space stations such as the ISS; scientific satellites like the Hubble; Earth observation satellites from companies like Planet Labs, Umbra, and HawkEye 360; GPS; miniature CubeSats for education and research; and military/defense satellites.

Loading next visibility...
Identifier
65337, 2025-189Q
Orbit
LEO
Country
Flag of USUS
Related business
Manufacturer
SpaceX/Seattle
Mission
Operational Commercial Communications
Bus & Motor
STARLINK V2MO, Unknown motor
Mass
575 kg wet, ~530 kg dry
Launch date (UTC)
2025-08-27 (10 months ago)
Launch vehicle
FALCON 9
Launch site
Air Force Eastern Test Range (AFETR)
Object type
Payload
Rocket body
Debris
Shape & HBR
Box + 2 Pan, 17.7 m
Radar Cross Section
36.964 m², Large (>1 m²)

Expand to show TLE details & history
Last TLE update: 23 hours ago

TLE from 23 hours ago
0 STARLINK-34854
1 65337U 25189Q   26170.92208149  .00029842  00000-0  96865-3 0  9992
2 65337  53.1605  91.5595 0001026  92.7444 267.3675 15.31730094 46705
Epoch: 2026-06-19T22:07Z
TLE epoch observation values (Epoch: 2026-06-19T22:07:47.840Z)
Latitude
-0.00002°
Longitude
-148.53396°
Altitude
471.583 km
Speed
7.631 km/s
True Right ascension
06h 06m 14s
True Declination
0° 00' 00"
Sunlit
Object was in daylight at epoch
Visualization orbit readout
Latitude
Unknown
Longitude
Unknown
Altitude
Unknown
Speed
Unknown
Apparent Right ascension
Unknown
Apparent Declination
Unknown
Sunlit
N/A
Visualization observer readout
Local Sidereal Time
08:33:00
Azimuth
Unknown
Elevation
Unknown
Doppler factor
Unknown
Orbital elements
Apogee altitude
471.61 km
Perigee altitude
470.204 km
Semi-major axis
6,849.044 km
Eccentricity
0.0001
Inclination
53.1605°
RAAN
91.5595°
Arg. of periapsis
92.7444°
True anomaly
267.35576°
Mean anomaly
267.3675°
Eccentric anomaly
267.36163°
Mean motion
3.82911 °/min
Orbital period
94.02 mins
BSTAR
0.00096865
Loading maneuver chart data...
Computing Atmospheric mass density...
Loading historical data...
Loading historical data...
Loading historical data...
Loading historical data...
Loading historical data...
Loading historical data...
Loading historical data...

Documentation

Showing up to 5 results
|